DW0148 Weather Reports


time (UTC)temp
F
wind
direction
speed
knots
gust
knots
rain 1hr
in
rain 24hr
in
rain mn
in
humidity
%
barometer
mb
20260508124816 49 70 0.9 1.7 0.00 0.00 0.00 95 1017.3
20260508124315 48 73 0.0 1.7 0.00 0.00 0.00 95 1017.3
20260508123814 47 57 0.9 1.7 0.00 0.00 0.00 95 1017.3
20260508123313 47 96 0.0 0.9 0.00 0.00 0.00 95 1016.9
20260508122812 46 96 0.9 0.9 0.00 0.00 0.00 95 1016.9
20260508122311 46 98 0.0 0.0 0.00 0.00 0.00 95 1017.3
20260508121810 45 97 0.0 0.0 0.00 0.00 0.00 95 1017.3
20260508121308 44 98 0.0 0.0 0.00 0.00 0.00 95 1017.3
20260508120807 44 97 0.0 0.0 0.00 0.00 0.00 95 1017.3
20260508120233 43 97 0.0 0.0 0.00 0.00 0.00 95 1016.9
20260508115732 43 97 0.0 0.9 0.00 0.00 0.00 95 1016.9
20260508115231 42 98 0.0 0.9 0.00 0.00 0.00 95 1016.9
20260508114658 42 98 0.0 0.9 0.00 0.00 0.00 95 1016.6
20260508114157 41 98 0.0 0.9 0.00 0.00 0.00 95 1016.6
20260508113623 41 97 0.0 0.0 0.00 0.00 0.00 95 1016.6
20260508113122 41 97 0.0 0.0 0.00 0.00 0.00 95 1016.6
20260508112619 41 97 0.0 0.0 0.00 0.00 0.00 95 1016.3
20260508112118 41 97 0.0 0.0 0.00 0.00 0.00 95 1016.3
20260508111617 41 97 0.0 0.0 0.00 0.00 0.00 95 1016.3
20260508111044 41 98 0.0 0.0 0.00 0.00 0.00 95 1016.3
20260508110542 41 97 0.0 0.0 0.00 0.00 0.00 95 1015.9
20260508110040 41 98 0.0 0.0 0.00 0.00 0.00 95 1015.9
20260508105436 41 97 0.0 0.0 0.00 0.00 0.00 95 1015.9
20260508104935 40 97 0.0 0.0 0.00 0.00 0.00 95 1015.9
20260508104433 41 98 0.0 0.0 0.00 0.00 0.00 95 1015.9
20260508103900 41 97 0.0 0.0 0.00 0.00 0.00 95 1015.6
20260508103359 41 98 0.0 0.0 0.00 0.00 0.00 95 1015.6
20260508102856 41 98 0.0 0.0 0.00 0.00 0.00 95 1015.6
20260508102355 41 98 0.0 0.0 0.00 0.00 0.00 95 1015.6
20260508101751 41 97 0.0 0.0 0.00 0.01 0.00 95 1015.2
20260508101218 41 98 0.0 0.0 0.00 0.01 0.00 95 1015.2
20260508100716 41 97 0.0 0.0 0.00 0.01 0.00 95 1015.2
20260508100213 41 98 0.0 0.0 0.00 0.01 0.00 95 1015.2
20260508095713 41 98 0.0 0.0 0.00 0.01 0.00 95 1015.2
20260508095211 41 98 0.0 0.0 0.00 0.01 0.00 95 1015.2
20260508094710 41 98 0.0 0.0 0.00 0.01 0.00 95 1015.2
20260508094209 41 98 0.0 0.0 0.00 0.01 0.00 95 1015.2
20260508093707 42 98 0.0 0.0 0.00 0.01 0.00 95 1015.2
20260508093133 41 98 0.0 0.0 0.00 0.01 0.00 95 1015.2
20260508092632 42 98 0.0 0.0 0.00 0.01 0.00 95 1015.2
20260508092058 42 98 0.0 0.0 0.00 0.01 0.00 95 1015.2
20260508091556 42 98 0.0 0.0 0.00 0.02 0.00 95 1015.2
20260508091055 42 98 0.0 0.0 0.00 0.02 0.00 95 1014.9
20260508090523 42 97 0.0 0.0 0.00 0.02 0.00 95 1015.2
20260508090021 42 98 0.0 0.0 0.00 0.02 0.00 95 1015.2
20260508085520 42 97 0.0 0.0 0.00 0.02 0.00 95 1015.2
20260508085019 42 97 0.0 0.0 0.00 0.02 0.00 95 1014.9
20260508084447 43 97 0.0 0.9 0.00 0.03 0.00 95 1014.9
20260508083943 43 98 0.0 0.9 0.00 0.03 0.00 95 1015.2
20260508083442 43 97 0.0 0.9 0.00 0.03 0.00 95 1015.2
20260508082939 43 98 0.9 0.9 0.00 0.04 0.00 95 1015.2
20260508082438 43 97 0.0 0.0 0.00 0.04 0.00 95 1015.2
20260508081937 43 98 0.0 0.0 0.00 0.04 0.00 95 1014.9
20260508081436 43 97 0.0 0.0 0.00 0.04 0.00 95 1014.9
20260508080935 43 97 0.0 0.0 0.00 0.04 0.00 95 1014.9
20260508080433 43 97 0.0 0.0 0.00 0.04 0.00 95 1014.9
20260508075757 43 97 0.0 0.0 0.00 0.04 0.00 95 1014.9
20260508075256 43 97 0.0 0.0 0.00 0.04 0.00 95 1014.9
20260508074754 44 98 0.0 0.0 0.00 0.04 0.00 95 1014.9
20260508074253 44 97 0.0 0.0 0.00 0.04 0.00 95 1014.9
20260508073752 44 97 0.0 0.0 0.00 0.04 0.00 95 1014.9
20260508073250 44 98 0.0 0.0 0.00 0.04 0.00 95 1014.9
20260508072748 44 97 0.0 0.0 0.00 0.04 0.00 95 1014.9
20260508072247 44 98 0.0 0.0 0.00 0.04 0.00 95 1014.9
20260508071745 44 97 0.0 0.0 0.00 0.04 0.00 95 1014.9
20260508071243 44 98 0.0 0.0 0.00 0.04 0.00 95 1014.9
20260508070740 44 98 0.0 0.0 0.00 0.04 0.00 95 1014.9
20260508070238 44 97 0.0 0.0 0.00 0.04 0.00 95 1014.9
20260508065737 44 98 0.0 0.0 0.00 0.04 0.00 95 1015.2
20260508065203 44 98 0.0 0.0 0.00 0.04 0.00 95 1014.9
20260508064702 44 97 0.0 0.0 0.00 0.04 0.00 95 1014.9
20260508064201 45 97 0.0 0.0 0.00 0.04 0.00 95 1014.9
20260508063700 45 98 0.0 0.0 0.00 0.04 0.00 95 1014.9
20260508063157 45 97 0.0 0.0 0.00 0.04 0.00 95 1014.9
20260508062656 45 97 0.0 0.0 0.00 0.04 0.00 95 1014.9
20260508062155 45 98 0.0 0.0 0.00 0.04 0.00 95 1014.9
20260508061654 45 98 0.0 0.9 0.00 0.04 0.00 95 1014.9
20260508061153 46 97 0.0 0.9 0.00 0.04 0.00 95 1015.2
20260508060651 46 98 0.0 0.9 0.00 0.04 0.00 95 1014.9
20260508060150 46 97 0.0 0.9 0.00 0.04 0.00 95 1014.9
20260508055648 46 98 0.0 0.0 0.00 0.04 0.00 95 1015.2
20260508055145 46 98 0.0 0.0 0.00 0.04 0.00 95 1014.9
20260508054644 46 97 0.0 0.0 0.00 0.04 0.00 95 1014.9
20260508054111 46 97 0.0 0.0 0.00 0.04 0.00 95 1014.9
20260508053610 46 97 0.0 0.9 0.00 0.04 0.00 95 1014.9
20260508053038 46 98 0.0 0.9 0.00 0.04 0.00 95 1014.9
20260508052536 46 97 0.0 0.9 0.00 0.04 0.00 95 1014.9
20260508052001 46 97 0.0 0.9 0.00 0.04 0.00 95 1014.9
20260508051500 46 97 0.0 0.0 0.00 0.04 0.00 95 1014.9
20260508050958 46 98 0.0 0.0 0.00 0.04 0.00 95 1014.9
20260508050456 46 97 0.0 0.0 0.00 0.04 0.00 95 1014.9
20260508045954 46 98 0.0 0.0 0.00 0.04 0.00 95 1014.9
20260508045452 46 98 0.0 0.0 0.00 0.04 0.00 95 1014.9
20260508044920 46 97 0.0 0.0 0.00 0.04 0.00 95 1014.9
20260508044419 46 98 0.0 0.0 0.00 0.04 0.00 95 1014.9
20260508043918 46 97 0.0 0.0 0.00 0.04 0.00 95 1014.9
20260508043416 47 98 0.0 0.0 0.00 0.04 0.00 95 1014.9
20260508042915 47 98 0.0 0.0 0.00 0.04 0.00 95 1014.9
20260508042414 47 98 0.0 0.0 0.00 0.04 0.00 95 1014.9
20260508041913 47 97 0.0 0.0 0.00 0.04 0.00 95 1014.9
20260508041411 47 97 0.0 0.0 0.00 0.04 0.00 95 1014.6
20260508040909 47 97 0.0 0.0 0.00 0.04 0.00 95 1014.6
20260508040408 47 97 0.0 0.0 0.00 0.04 0.00 95 1014.6
20260508035906 47 97 0.0 0.0 0.00 0.04 0.00 95 1014.6
20260508035405 48 98 0.0 0.0 0.00 0.04 0.00 95 1014.6
20260508034904 48 97 0.0 0.0 0.00 0.04 0.00 95 1014.6
20260508034403 48 97 0.0 0.0 0.00 0.04 0.00 95 1014.6
20260508033902 48 98 0.0 0.0 0.00 0.04 0.00 95 1014.6
20260508033359 48 98 0.0 0.0 0.00 0.04 0.00 95 1014.6
20260508032858 48 98 0.0 0.0 0.00 0.04 0.00 94 1014.6
20260508032357 48 97 0.0 0.0 0.00 0.04 0.00 94 1014.6
20260508031855 48 97 0.0 0.0 0.00 0.04 0.00 94 1014.6
20260508031323 48 98 0.0 0.0 0.00 0.04 0.00 94 1014.6
20260508030822 48 98 0.0 0.0 0.00 0.04 0.00 94 1014.6
20260508030319 48 97 0.0 0.0 0.00 0.04 0.00 94 1014.6
20260508025817 48 97 0.0 0.0 0.00 0.04 0.00 94 1014.2
20260508025315 48 97 0.0 0.0 0.00 0.04 0.00 94 1014.6
20260508024743 48 97 0.0 0.0 0.00 0.04 0.00 94 1014.6
20260508024240 49 98 0.0 0.0 0.00 0.04 0.00 94 1014.2
20260508023739 49 98 0.0 0.0 0.00 0.04 0.00 94 1014.2
20260508023238 49 97 0.0 0.0 0.00 0.04 0.00 94 1014.2
20260508022737 49 97 0.0 0.0 0.00 0.04 0.00 94 1014.2
20260508022234 49 97 0.0 0.0 0.00 0.04 0.00 93 1014.2
20260508021732 49 97 0.0 0.0 0.00 0.04 0.00 93 1014.2
20260508021129 49 97 0.0 0.0 0.00 0.04 0.00 93 1014.2
20260508020627 50 98 0.0 0.0 0.00 0.04 0.00 93 1014.2
20260508020055 50 97 0.0 0.0 0.00 0.04 0.00 92 1013.9
20260508015553 50 98 0.0 0.0 0.00 0.04 0.00 92 1013.9
20260508015052 50 97 0.0 0.0 0.00 0.04 0.00 92 1013.9
20260508014520 51 96 0.0 0.0 0.00 0.04 0.00 92 1013.5
20260508014017 51 98 0.0 0.0 0.00 0.04 0.00 92 1013.5
20260508013443 51 98 0.0 0.0 0.00 0.04 0.00 91 1013.5
20260508012808 52 97 0.0 0.0 0.00 0.04 0.00 91 1013.2
20260508012308 52 98 0.0 0.0 0.00 0.04 0.00 90 1013.2
20260508011734 52 97 0.0 0.0 0.00 0.04 0.00 90 1013.2
20260508011231 53 97 0.0 0.0 0.00 0.04 0.00 90 1013.2
20260508010730 53 97 0.0 0.0 0.00 0.04 0.00 89 1013.2
20260508010228 54 98 0.0 0.0 0.00 0.04 0.00 89 1012.9
20260508005726 54 98 0.0 0.0 0.00 0.04 0.00 88 1012.9
20260508005224 55 97 0.0 0.0 0.00 0.04 0.00 87 1012.9
20260508004722 55 97 0.0 0.0 0.00 0.04 0.00 87 1012.9
20260508004221 56 97 0.0 0.0 0.00 0.04 0.00 86 1012.5
20260508003720 56 97 0.0 0.0 0.00 0.04 0.00 84 1012.5
20260508003218 57 97 0.0 0.0 0.00 0.04 0.00 82 1012.5
20260508002715 58 97 0.0 0.9 0.00 0.04 0.00 78 1012.5
20260508002141 58 97 0.0 0.9 0.00 0.05 0.00 75 1012.2
20260508001609 59 97 0.0 0.9 0.00 0.06 0.00 72 1012.2
20260508001037 59 96 0.9 0.9 0.00 0.06 0.00 71 1012.2
20260508000535 59 201 0.0 1.7 0.00 0.08 0.00 72 1011.9
20260508000034 60 201 0.0 1.7 0.00 0.09 0.00 71 1011.9
20260507235532 60 201 0.0 1.7 0.00 0.09 0.00 69 1011.9
20260507235000 61 194 0.9 1.7 0.00 0.12 0.00 67 1011.9
20260507234459 61 105 0.0 0.9 0.00 0.13 0.00 67 1011.9
20260507233957 61 105 0.0 0.9 0.00 0.14 0.00 66 1011.9
20260507233456 62 105 0.0 0.9 0.00 0.16 0.00 67 1011.9
20260507232954 62 105 0.9 0.9 0.00 0.17 0.00 66 1011.9
20260507232453 62 85 0.9 0.9 0.00 0.17 0.00 63 1011.5
20260507231920 63 283 0.0 0.9 0.00 0.18 0.00 65 1011.9
20260507231418 63 296 0.9 4.3 0.00 0.19 0.00 63 1011.9
20260507230917 63 57 0.9 4.3 0.00 0.19 0.00 63 1011.9
20260507230415 63 56 0.0 5.2 0.00 0.19 0.00 64 1011.9
20260507225913 64 62 1.7 5.2 0.00 0.19 0.00 62 1011.9
20260507225411 64 136 0.0 1.7 0.00 0.19 0.00 63 1011.9
20260507224838 64 214 0.0 1.7 0.00 0.19 0.00 63 1011.9
20260507224337 64 248 0.0 4.3 0.00 0.19 0.00 64 1011.9
20260507223836 64 73 0.0 4.3 0.00 0.19 0.00 65 1011.9
20260507223334 64 72 0.9 4.3 0.00 0.19 0.00 67 1011.9
20260507222833 65 305 0.0 4.3 0.00 0.19 0.00 69 1011.9
20260507222330 65 76 0.0 2.6 0.00 0.19 0.00 68 1011.9
20260507221829 65 141 0.0 2.6 0.00 0.19 0.00 64 1011.9
20260507221256 66 282 0.9 3.5 0.00 0.19 0.00 66 1011.9
20260507220754 66 227 0.9 3.5 0.00 0.20 0.00 59 1011.9
20260507220222 66 305 0.0 3.5 0.00 0.21 0.00 64 1011.9
20260507215721 66 44 1.7 3.5 0.00 0.22 0.00 58 1011.9
20260507215148 66 251 0.9 2.6 0.00 0.23 0.00 60 1011.9
20260507214647 66 240 1.7 2.6 0.00 0.23 0.00 71 1011.5
20260507214145 66 69 1.7 2.6 0.00 0.24 0.00 62 1011.9
20260507213644 66 8 0.0 2.6 0.00 0.25 0.00 65 1011.5
20260507213111 66 104 0.9 2.6 0.00 0.27 0.00 63 1011.5
20260507212609 66 102 1.7 2.6 0.00 0.28 0.00 57 1011.5
20260507212036 66 246 0.9 0.9 0.00 0.29 0.00 63 1011.5
20260507211534 66 273 0.0 0.9 0.00 0.30 0.00 62 1011.5
20260507210931 66 44 0.0 0.9 0.00 0.30 0.00 66 1011.2
20260507210356 66 44 0.0 4.3 0.00 0.31 0.00 61 1011.2
20260507205823 66 44 0.0 4.3 0.00 0.33 0.00 63 1011.2
20260507205321 66 44 0.0 7.8 0.00 0.34 0.00 63 1011.2
20260507204820 66 10 1.7 7.8 0.00 0.34 0.00 60 1011.2
20260507204319 66 2 1.7 8.7 0.00 0.34 0.00 61 1011.2
20260507203817 67 3 2.6 8.7 0.00 0.35 0.00 59 1011.2
20260507203315 67 3 2.6 5.2 0.00 0.36 0.00 59 1011.2
20260507202813 67 58 0.9 4.3 0.00 0.36 0.00 62 1011.2
20260507202312 66 16 0.9 4.3 0.00 0.37 0.00 67 1011.2
20260507201811 66 29 2.6 4.3 0.00 0.37 0.00 63 1011.2
20260507201310 66 35 0.9 4.3 0.00 0.38 0.00 61 1011.2
20260507200807 65 27 0.9 5.2 0.00 0.39 0.00 61 1011.5
20260507200306 65 29 1.7 5.2 0.00 0.39 0.00 63 1011.5
20260507195805 65 43 0.9 5.2 0.00 0.40 0.00 65 1011.5
20260507195305 65 56 0.0 6.1 0.00 0.40 0.00 65 1011.5
20260507194801 65 44 0.9 6.1 0.00 0.41 0.00 63 1011.5
20260507194258 65 36 2.6 5.2 0.00 0.43 0.00 67 1011.5
20260507193756 65 78 0.9 2.6 0.00 0.43 0.00 68 1011.5
20260507193255 64 12 0.9 2.6 0.00 0.45 0.00 66 1011.5
20260507192722 64 145 0.0 3.5 0.00 0.46 0.00 65 1011.9
20260507192221 64 36 0.9 3.5 0.00 0.46 0.00 67 1011.9
20260507191720 64 39 0.9 3.5 0.00 0.46 0.00 71 1011.9
20260507191218 64 27 1.7 6.1 0.00 0.46 0.00 69 1011.9
20260507190717 63 81 0.9 6.1 0.00 0.47 0.00 72 1011.9
20260507190216 63 44 0.9 7.0 0.00 0.48 0.00 71 1011.9
20260507185714 63 44 1.7 7.0 0.00 0.48 0.00 72 1012.2
20260507185212 63 27 2.6 6.1 0.00 0.48 0.00 70 1012.2
20260507184711 63 39 2.6 4.3 0.00 0.49 0.00 72 1012.2
20260507184210 63 50 0.9 4.3 0.00 0.49 0.00 73 1011.9
20260507183708 63 36 1.7 8.7 0.00 0.50 0.00 72 1011.9
20260507183205 63 8 0.9 8.7 0.00 0.50 0.00 76 1011.9
20260507182702 63 31 1.7 9.6 0.00 0.50 0.00 74 1011.9
20260507182201 63 40 4.3 9.6 0.00 0.51 0.00 75 1011.9
20260507181658 63 20 4.3 8.7 0.00 0.52 0.00 80 1011.9
20260507181157 62 8 0.9 5.2 0.00 0.53 0.00 87 1011.9
20260507180656 61 42 2.6 6.1 0.00 0.53 0.00 91 1012.2
20260507180153 61 23 1.7 6.1 0.00 0.53 0.00 93 1011.9
20260507175651 61 35 2.6 6.1 0.00 0.53 0.00 94 1012.2
20260507175149 61 33 2.6 6.1 0.00 0.53 0.00 94 1011.9
20260507174648 61 28 1.7 7.0 0.00 0.53 0.00 95 1011.9
20260507174116 61 17 0.9 7.0 0.00 0.53 0.00 95 1012.5
20260507173614 60 42 1.7 7.0 0.00 0.53 0.00 95 1012.5
20260507173113 60 18 5.2 7.0 0.00 0.53 0.00 95 1012.5
20260507172611 59 53 2.6 6.1 0.00 0.53 0.00 94 1012.5
20260507172039 59 2 3.5 7.8 0.00 0.53 0.00 95 1012.5
20260507171537 59 126 0.9 7.8 0.00 0.53 0.00 95 1012.5
20260507171004 58 57 1.7 7.8 0.00 0.53 0.00 95 1012.5
20260507170503 58 20 2.6 7.8 0.00 0.53 0.00 95 1012.5
20260507170001 57 114 1.7 6.1 0.00 0.53 0.00 95 1012.5
20260507165429 57 23 1.7 6.1 0.00 0.53 0.00 95 1012.5
20260507164926 57 30 1.7 5.2 0.00 0.53 0.00 95 1012.5
20260507164352 57 34 1.7 5.2 0.00 0.53 0.00 95 1012.5
20260507163850 56 41 0.9 6.1 0.00 0.53 0.00 95 1012.9
20260507163348 55 45 2.6 6.1 0.00 0.53 0.00 95 1012.9
20260507162844 55 43 2.6 6.1 0.00 0.53 0.00 95 1012.9
20260507162342 56 52 2.6 6.1 0.00 0.53 0.00 95 1012.9
20260507161841 56 46 3.5 6.1 0.00 0.53 0.00 95 1012.9
20260507161339 56 64 1.7 6.1 0.00 0.53 0.00 95 1012.9
20260507160838 56 347 0.9 4.3 0.00 0.53 0.00 95 1012.9
20260507160336 56 85 1.7 4.3 0.00 0.53 0.00 95 1012.9
20260507155834 56 37 1.7 4.3 0.00 0.53 0.53 95 1012.5
20260507155229 55 48 1.7 4.3 0.00 0.53 0.53 95 1012.5
20260507154728 55 40 1.7 3.5 0.00 0.53 0.53 95 1012.5
20260507154155 55 41 0.9 4.3 0.00 0.53 0.53 95 1012.5
20260507153654 55 56 2.6 4.3 0.00 0.53 0.53 95 1012.5
20260507153121 55 215 0.9 1.7 0.00 0.53 0.53 95 1012.5
20260507152619 54 215 0.9 1.7 0.00 0.53 0.53 95 1012.5
20260507152118 54 61 0.0 2.6 0.00 0.53 0.53 95 1012.5
20260507151616 53 71 0.9 2.6 0.00 0.53 0.53 95 1012.5
20260507151115 54 47 1.7 2.6 0.00 0.53 0.53 95 1012.5
20260507150614 54 77 0.9 2.6 0.00 0.53 0.53 95 1012.5
20260507150009 54 53 0.9 2.6 0.00 0.53 0.53 95 1012.5
20260507145507 54 51 1.7 2.6 0.00 0.53 0.53 95 1012.5
20260507145005 54 89 0.0 0.9 0.00 0.54 0.53 95 1012.5
20260507144504 54 82 0.9 0.9 0.00 0.55 0.53 95 1012.5
20260507144003 54 103 0.9 1.7 0.00 0.55 0.53 95 1012.5
20260507143501 54 6 0.0 1.7 0.00 0.56 0.53 95 1012.5
20260507143000 54 6 0.0 2.6 0.00 0.57 0.53 95 1012.5
20260507142458 54 16 0.9 2.6 0.00 0.58 0.53 95 1012.2
20260507141956 54 48 0.9 3.5 0.00 0.59 0.53 95 1012.2
20260507141455 54 70 1.7 3.5 0.00 0.60 0.53 95 1012.2
20260507140953 54 64 0.0 3.5 0.00 0.60 0.53 95 1012.2
20260507140452 54 78 0.9 3.5 0.00 0.61 0.53 95 1011.9
20260507135951 54 44 0.0 3.5 0.00 0.62 0.53 95 1011.9
20260507135449 54 44 0.0 3.5 0.00 0.62 0.53 95 1011.9
20260507134947 54 27 0.9 1.7 0.00 0.64 0.53 95 1011.9
20260507134445 54 23 0.0 3.5 0.00 0.65 0.53 95 1011.9
20260507133943 54 23 0.9 3.5 0.00 0.66 0.53 95 1011.9
20260507133441 54 5 0.0 3.5 0.00 0.68 0.53 95 1011.9
20260507132939 54 58 1.7 3.5 0.00 0.71 0.53 95 1011.9
20260507132437 54 72 0.9 0.9 0.00 0.73 0.53 96 1011.9
20260507131934 54 69 0.9 0.9 0.00 0.73 0.53 96 1011.9
20260507131433 55 84 0.0 0.0 0.00 0.74 0.53 96 1011.9
20260507130932 54 85 0.0 0.0 0.00 0.76 0.53 96 1011.5
20260507130431 54 85 0.0 0.9 0.00 0.78 0.53 96 1011.5
20260507125928 54 84 0.0 0.9 0.00 0.81 0.53 96 1011.5
20260507125427 54 84 0.0 0.9 0.00 0.82 0.53 96 1011.5